,,Stat5,,Stat1,,Stat2,,Stat3,,Stat4,,Wind1,,Wind1,
time,status,PA1M_AVG,status,PR1M_SUM,status,RH1M_AVG,status,SR1M_AVG,status,TA1M_AVG,status,W1dAve1m,status,W1sAve1m,
2003-06-10, 00:00:00,VALID,917.497,VALID,0,VALID,98.88,VALID,-0.0169808,VALID,20.7574,VALID,135,VALID,0.660684,
2003-06-10, 00:01:00,VALID,917.477,VALID,0,VALID,98.9219,VALID,0,VALID,20.7606,VALID,118,VALID,0.411595,
2003-06-10, 00:02:00,VALID,917.469,VALID,0,VALID,98.894,VALID,0,VALID,20.7574,VALID,97,VALID,0.602764,
2003-06-10, 00:03:00,VALID,917.45,VALID,0,VALID,98.8533,VALID,0,VALID,20.7345,VALID,83,VALID,0.683259,
2003-06-10, 00:04:00,VALID,917.44,VALID,0,VALID,98.852,VALID,0,VALID,20.7122,VALID,89,VALID,0.542969,
2003-06-10, 00:05:00,VALID,917.427,VALID,0,VALID,98.9245,VALID,0,VALID,20.6896,VALID,91,VALID,0.580134,
2003-06-10, 00:06:00,VALID,917.422,VALID,0,VALID,99.0249,VALID,0.0169808,VALID,20.7057,VALID,99,VALID,0.797266,
2003-06-10, 00:07:00,VALID,917.408,VALID,0,VALID,99.0631,VALID,0.0169808,VALID,20.7388,VALID,97,VALID,0.586397,
2003-06-10, 00:08:00,VALID,917.408,VALID,0,VALID,99.0733,VALID,0,VALID,20.7318,VALID,84,VALID,0.503038,
2003-06-10, 00:09:00,VALID,917.409,VALID,0,VALID,99.0275,VALID,0,VALID,20.7283,VALID,84,VALID,0.496094,
2003-06-10, 00:10:00,VALID,917.431,VALID,0,VALID,99.0351,VALID,0.0169808,VALID,20.7157,VALID,98,VALID,0.761949,
2003-06-10, 00:11:00,VALID,917.451,VALID,0,VALID,99.0656,VALID,0,VALID,20.7025,VALID,87,VALID,0.526563,
2003-06-10, 00:12:00,VALID,917.473,VALID,0,VALID,99.0771,VALID,0,VALID,20.7063,VALID,88,VALID,0.497196,
2003-06-10, 00:13:00,VALID,917.485,VALID,0,VALID,99.1012,VALID,0,VALID,20.706,VALID,89,VALID,0.356841,
2003-06-10, 00:14:00,VALID,917.5,VALID,0,VALID,99.1101,VALID,0,VALID,20.7025,VALID,117,VALID,0.293527,
2003-06-10, 00:15:00,VALID,917.493,VALID,0,VALID,99.1419,VALID,0,VALID,20.706,VALID,129,VALID,0.436498,
2003-06-10, 00:16:00,VALID,917.492,VALID,0,VALID,99.1623,VALID,0.0169808,VALID,20.7157,VALID,136,VALID,0.51837,
2003-06-10, 00:17:00,VALID,917.474,VALID,0,VALID,99.175,VALID,0.0169808,VALID,20.7119,VALID,134,VALID,0.42079,
2003-06-10, 00:18:00,VALID,917.464,VALID,0,VALID,99.1839,VALID,0,VALID,20.7221,VALID,125,VALID,0.314648,
2003-06-10, 00:19:00,VALID,917.455,VALID,0,VALID,99.1508,VALID,0,VALID,20.7154,VALID,135,VALID,0.297564,
2003-06-10, 00:20:00,VALID,917.443,VALID,0,VALID,99.1114,VALID,0,VALID,20.6893,VALID,135,VALID,0.203125,
2003-06-10, 00:21:00,VALID,917.427,VALID,0,VALID,99.0783,VALID,0,VALID,20.6673,VALID,122,VALID,0.322656,
2003-06-10, 00:22:00,VALID,917.4,VALID,0,VALID,99.1406,VALID,0,VALID,20.6541,VALID,101,VALID,0.496553,
2003-06-10, 00:23:00,VALID,917.385,VALID,0,VALID,99.1546,VALID,0,VALID,20.6444,VALID,85,VALID,0.514732,
2003-06-10, 00:24:00,VALID,917.366,VALID,0,VALID,99.1318,VALID,0,VALID,20.6549,VALID,85,VALID,0.447917,
2003-06-10, 00:25:00,VALID,917.356,VALID,0,VALID,99.1483,VALID,-0.0169808,VALID,20.6318,VALID,90,VALID,0.411529,
2003-06-10, 00:26:00,VALID,917.342,VALID,0,VALID,99.1661,VALID,0,VALID,20.6355,VALID,125,VALID,0.53192,
2003-06-10, 00:27:00,VALID,917.345,VALID,0,VALID,99.1648,VALID,0,VALID,20.6221,VALID,123,VALID,0.477364,
2003-06-10, 00:28:00,VALID,917.327,VALID,0,VALID,99.1521,VALID,-0.0169808,VALID,20.6199,VALID,118,VALID,0.585938,
2003-06-10, 00:29:00,VALID,917.302,VALID,0,VALID,99.1775,VALID,-0.0339617,VALID,20.6102,VALID,118,VALID,0.105686,
2003-06-10, 00:30:00,VALID,917.284,VALID,0,VALID,99.2119,VALID,0,VALID,20.6167,VALID,115,VALID,0.0925781,
2003-06-10, 00:31:00,VALID,917.255,VALID,0,VALID,99.2157,VALID,0,VALID,20.6164,VALID,101,VALID,0.132583,
2003-06-10, 00:32:00,VALID,917.252,VALID,0,VALID,99.2309,VALID,0,VALID,20.6296,VALID,101,VALID,0,
2003-06-10, 00:33:00,VALID,917.242,VALID,0,VALID,99.2297,VALID,0,VALID,20.6161,VALID,101,VALID,0.0244141,
2003-06-10, 00:34:00,VALID,917.231,VALID,0,VALID,99.2258,VALID,-0.0169808,VALID,20.6194,VALID,101,VALID,0.118107,
2003-06-10, 00:35:00,VALID,917.218,VALID,0,VALID,99.2195,VALID,-0.0169808,VALID,20.6167,VALID,101,VALID,0.0756696,
2003-06-10, 00:36:00,VALID,917.221,VALID,0,VALID,99.203,VALID,0,VALID,20.6132,VALID,100,VALID,0.128005,
2003-06-10, 00:37:00,VALID,917.215,VALID,0,VALID,99.2119,VALID,0,VALID,20.5868,VALID,100,VALID,0.0701014,
2003-06-10, 00:38:00,VALID,917.22,VALID,0,VALID,99.2068,VALID,-0.0169808,VALID,20.5938,VALID,99,VALID,0.156696,
2003-06-10, 00:39:00,VALID,917.226,VALID,0,VALID,99.1991,VALID,0,VALID,20.604,VALID,87,VALID,0.169471,
2003-06-10, 00:40:00,VALID,917.218,VALID,0,VALID,99.1674,VALID,-0.0169808,VALID,20.5809,VALID,32,VALID,0.607264,
2003-06-10, 00:41:00,VALID,917.222,VALID,0,VALID,99.133,VALID,0,VALID,20.5546,VALID,31,VALID,0.820313,
2003-06-10, 00:42:00,VALID,917.205,VALID,0,VALID,99.0758,VALID,0.0169808,VALID,20.526,VALID,24,VALID,0.955273,
2003-06-10, 00:43:00,VALID,917.185,VALID,0,VALID,99.0186,VALID,0,VALID,20.4878,VALID,24,VALID,1.05928,
2003-06-10, 00:44:00,VALID,917.152,VALID,0,VALID,98.969,VALID,-0.0339617,VALID,20.4297,VALID,26,VALID,1.10981,
2003-06-10, 00:45:00,VALID,917.128,VALID,0,VALID,98.955,VALID,-0.0169808,VALID,20.3711,VALID,33,VALID,1.05527,
2003-06-10, 00:46:00,VALID,917.105,VALID,0,VALID,99.0237,VALID,-0.0169808,VALID,20.3385,VALID,46,VALID,0.971048,
2003-06-10, 00:47:00,VALID,917.094,VALID,0,VALID,99.0783,VALID,-0.0339617,VALID,20.3428,VALID,50,VALID,0.945313,
2003-06-10, 00:48:00,VALID,917.085,VALID,0,VALID,99.0847,VALID,-0.0339617,VALID,20.3001,VALID,51,VALID,0.917668,
2003-06-10, 00:49:00,VALID,917.086,VALID,0,VALID,99.1419,VALID,-0.0169808,VALID,20.3003,VALID,50,VALID,0.8144,
2003-06-10, 00:50:00,VALID,917.076,VALID,0,VALID,99.1813,VALID,0,VALID,20.2877,VALID,60,VALID,0.691964,
2003-06-10, 00:51:00,VALID,917.076,VALID,0,VALID,99.2347,VALID,0,VALID,20.2901,VALID,51,VALID,0.664864,
2003-06-10, 00:52:00,VALID,917.072,VALID,0,VALID,99.2665,VALID,-0.0509425,VALID,20.3103,VALID,66,VALID,0.646115,
2003-06-10, 00:53:00,VALID,917.065,VALID,0,VALID,99.2894,VALID,0,VALID,20.3232,VALID,74,VALID,0.60178,
2003-06-10, 00:54:00,VALID,917.049,VALID,0,VALID,99.2729,VALID,-0.0169808,VALID,20.3165,VALID,90,VALID,0.479688,
2003-06-10, 00:55:00,VALID,917.043,VALID,0,VALID,99.292,VALID,0,VALID,20.3103,VALID,123,VALID,0.569623,
2003-06-10, 00:56:00,VALID,917.031,VALID,0,VALID,99.292,VALID,-0.0169808,VALID,20.3068,VALID,105,VALID,0.522786,
2003-06-10, 00:57:00,VALID,917.015,VALID,0,VALID,99.3149,VALID,-0.0169808,VALID,20.2936,VALID,118,VALID,0.4375,
2003-06-10, 00:58:00,VALID,917.007,VALID,0,VALID,99.3314,VALID,0,VALID,20.2904,VALID,113,VALID,0.261949,
2003-06-10, 00:59:00,VALID,916.983,VALID,0,VALID,99.3428,VALID,0,VALID,20.2934,VALID,114,VALID,0.463616,
2003-06-10, 01:00:00,VALID,916.976,VALID,0,VALID,99.353,VALID,0,VALID,20.2872,VALID,143,VALID,0.386819,
2003-06-10, 01:01:00,VALID,916.961,VALID,0,VALID,99.3632,VALID,0,VALID,20.3006,VALID,145,VALID,0.429688,
2003-06-10, 01:02:00,VALID,916.952,VALID,0,VALID,99.3721,VALID,-0.0339617,VALID,20.2906,VALID,139,VALID,0.386607,
2003-06-10, 01:03:00,VALID,916.947,VALID,0,VALID,99.3632,VALID,-0.0169808,VALID,20.281,VALID,121,VALID,0.439303,
2003-06-10, 01:04:00,VALID,916.944,VALID,0,VALID,99.3632,VALID,-0.0169808,VALID,20.2745,VALID,115,VALID,0.213049,
2003-06-10, 01:05:00,VALID,916.937,VALID,0,VALID,99.3772,VALID,-0.0339617,VALID,20.2753,VALID,115,VALID,0.031033,
2003-06-10, 01:06:00,VALID,916.924,VALID,0,VALID,99.3861,VALID,0,VALID,20.2748,VALID,115,VALID,0,
2003-06-10, 01:07:00,VALID,916.927,VALID,0,VALID,99.4026,VALID,0,VALID,20.2715,VALID,115,VALID,0.0755974,
2003-06-10, 01:08:00,VALID,916.929,VALID,0,VALID,99.3835,VALID,-0.0169808,VALID,20.2551,VALID,115,VALID,0.229818,
2003-06-10, 01:09:00,VALID,916.925,VALID,0,VALID,99.3695,VALID,0,VALID,20.2457,VALID,115,VALID,0.125391,
2003-06-10, 01:10:00,VALID,916.933,VALID,0,VALID,99.3632,VALID,0,VALID,20.2234,VALID,115,VALID,0,
2003-06-10, 01:11:00,VALID,916.931,VALID,0,VALID,99.3759,VALID,0.0169808,VALID,20.2167,VALID,115,VALID,0.148214,
2003-06-10, 01:12:00,VALID,916.929,VALID,0,VALID,99.3759,VALID,0,VALID,20.2266,VALID,66,VALID,0.353566,
2003-06-10, 01:13:00,VALID,916.924,VALID,0,VALID,99.3708,VALID,0,VALID,20.2065,VALID,31,VALID,0.599873,
2003-06-10, 01:14:00,VALID,916.931,VALID,0,VALID,99.3556,VALID,0,VALID,20.1868,VALID,28,VALID,0.629241,
2003-06-10, 01:15:00,VALID,916.917,VALID,0,VALID,99.3327,VALID,-0.0169808,VALID,20.1648,VALID,28,VALID,0.641627,
2003-06-10, 01:16:00,VALID,916.905,VALID,0,VALID,99.3021,VALID,0.0169808,VALID,20.1293,VALID,28,VALID,0.659628,
2003-06-10, 01:17:00,VALID,916.906,VALID,0,VALID,99.2831,VALID,0,VALID,20.0771,VALID,28,VALID,0.616753,
2003-06-10, 01:18:00,VALID,916.9,VALID,0,VALID,99.2958,VALID,0,VALID,20.0709,VALID,31,VALID,0.601758,
2003-06-10, 01:19:00,VALID,916.903,VALID,0,VALID,99.3047,VALID,0.0169808,VALID,20.0642,VALID,43,VALID,0.595818,
2003-06-10, 01:20:00,VALID,916.919,VALID,0,VALID,99.3072,VALID,0.0169808,VALID,20.0518,VALID,43,VALID,0.400825,
2003-06-10, 01:21:00,VALID,916.942,VALID,0,VALID,99.2818,VALID,0,VALID,20.0352,VALID,43,VALID,0.286133,
2003-06-10, 01:22:00,VALID,916.953,VALID,0,VALID,99.2233,VALID,0.0339617,VALID,20.0034,VALID,43,VALID,0.349265,
2003-06-10, 01:23:00,VALID,916.973,VALID,0,VALID,99.2258,VALID,0.0339617,VALID,19.9681,VALID,44,VALID,0.390848,
2003-06-10, 01:24:00,VALID,916.967,VALID,0,VALID,99.2246,VALID,0.0509425,VALID,19.9321,VALID,44,VALID,0.286458,
2003-06-10, 01:25:00,VALID,916.963,VALID,0,VALID,99.2589,VALID,0,VALID,19.916,VALID,45,VALID,0.330236,
2003-06-10, 01:26:00,VALID,916.949,VALID,0,VALID,99.2729,VALID,-0.0339617,VALID,19.8939,VALID,46,VALID,0.322321,
2003-06-10, 01:27:00,VALID,916.956,VALID,0,VALID,99.2971,VALID,-0.101885,VALID,19.9051,VALID,46,VALID,0.283253,
2003-06-10, 01:28:00,VALID,916.956,VALID,0,VALID,99.3187,VALID,-0.101885,VALID,19.8984,VALID,64,VALID,0.472551,
2003-06-10, 01:29:00,VALID,916.953,VALID,0,VALID,99.3517,VALID,-0.101885,VALID,19.915,VALID,87,VALID,0.63151,
2003-06-10, 01:30:00,VALID,916.937,VALID,0,VALID,99.381,VALID,-0.0849042,VALID,19.9277,VALID,86,VALID,0.433594,
2003-06-10, 01:31:00,VALID,916.932,VALID,0,VALID,99.3683,VALID,-0.0849042,VALID,19.9051,VALID,86,VALID,0.313879,
2003-06-10, 01:32:00,VALID,916.935,VALID,0,VALID,99.3225,VALID,-0.0849042,VALID,19.8664,VALID,86,VALID,0.388672,
2003-06-10, 01:33:00,VALID,916.927,VALID,0,VALID,99.3466,VALID,-0.118866,VALID,19.8534,VALID,86,VALID,0.355785,
2003-06-10, 01:34:00,VALID,916.938,VALID,0,VALID,99.3403,VALID,-0.118866,VALID,19.8435,VALID,86,VALID,0.346507,
2003-06-10, 01:35:00,VALID,916.926,VALID,0,VALID,99.3098,VALID,-0.101885,VALID,19.8244,VALID,77,VALID,0.355804,
2003-06-10, 01:36:00,VALID,916.936,VALID,0,VALID,99.3301,VALID,-0.101885,VALID,19.841,VALID,71,VALID,0.373598,
2003-06-10, 01:37:00,VALID,916.923,VALID,0,VALID,99.3428,VALID,-0.0849042,VALID,19.8306,VALID,71,VALID,0.117188,
2003-06-10, 01:38:00,VALID,916.927,VALID,0,VALID,99.3594,VALID,-0.101885,VALID,19.84,VALID,71,VALID,0.00223214,
2003-06-10, 01:39:00,VALID,916.923,VALID,0,VALID,99.3937,VALID,-0.0849042,VALID,19.8664,VALID,71,VALID,0.0010016,
2003-06-10, 01:40:00,VALID,916.917,VALID,0,VALID,99.4306,VALID,-0.101885,VALID,19.9284,VALID,71,VALID,0.128167,
2003-06-10, 01:41:00,VALID,916.91,VALID,0,VALID,99.4509,VALID,-0.0679233,VALID,19.9562,VALID,71,VALID,0.0920139,
2003-06-10, 01:42:00,VALID,916.899,VALID,0,VALID,99.4738,VALID,0,VALID,20.0034,VALID,71,VALID,0.0765625,
2003-06-10, 01:43:00,VALID,916.901,VALID,0,VALID,99.4865,VALID,0,VALID,20.0391,VALID,71,VALID,0.224035,
2003-06-10, 01:44:00,VALID,916.895,VALID,0,VALID,99.4662,VALID,0.0169808,VALID,20.0165,VALID,71,VALID,0.281901,
2003-06-10, 01:45:00,VALID,916.892,VALID,0,VALID,99.4357,VALID,0,VALID,19.9939,VALID,71,VALID,0.227734,
2003-06-10, 01:46:00,VALID,916.889,VALID,0,VALID,99.4268,VALID,0,VALID,20.0009,VALID,71,VALID,0.292279,
2003-06-10, 01:47:00,VALID,916.893,VALID,0,VALID,99.4013,VALID,0,VALID,19.9612,VALID,67,VALID,0.388839,
2003-06-10, 01:48:00,VALID,916.913,VALID,0,VALID,99.367,VALID,0.0169808,VALID,19.9557,VALID,38,VALID,0.507212,
2003-06-10, 01:49:00,VALID,916.908,VALID,0,VALID,99.3632,VALID,0,VALID,19.9522,VALID,28,VALID,0.589949,
2003-06-10, 01:50:00,VALID,916.903,VALID,0,VALID,99.3772,VALID,0,VALID,19.9552,VALID,29,VALID,0.497545,
2003-06-10, 01:51:00,VALID,916.886,VALID,0,VALID,99.3886,VALID,0,VALID,19.9681,VALID,30,VALID,0.497997,
2003-06-10, 01:52:00,VALID,916.865,VALID,0,VALID,99.4153,VALID,0,VALID,19.9875,VALID,31,VALID,0.500633,
2003-06-10, 01:53:00,VALID,916.871,VALID,0,VALID,99.4306,VALID,0.0169808,VALID,20.0131,VALID,31,VALID,0.529514,
2003-06-10, 01:54:00,VALID,916.855,VALID,0,VALID,99.4242,VALID,0,VALID,20.0131,VALID,32,VALID,0.630078,
2003-06-10, 01:55:00,VALID,916.845,VALID,0,VALID,99.4217,VALID,0.0169808,VALID,20.0101,VALID,42,VALID,0.789752,
2003-06-10, 01:56:00,VALID,916.838,VALID,0,VALID,99.4166,VALID,-0.0339617,VALID,20.017,VALID,43,VALID,0.815972,
2003-06-10, 01:57:00,VALID,916.831,VALID,0,VALID,99.4064,VALID,-0.0849042,VALID,20.0049,VALID,43,VALID,0.733594,
2003-06-10, 01:58:00,VALID,916.824,VALID,0,VALID,99.3912,VALID,-0.101885,VALID,19.9793,VALID,43,VALID,0.509191,
2003-06-10, 01:59:00,VALID,916.824,VALID,0,VALID,99.3327,VALID,-0.101885,VALID,19.9309,VALID,46,VALID,0.476116,
2003-06-10, 02:00:00,VALID,916.798,VALID,0,VALID,99.325,VALID,-0.0849042,VALID,19.9182,VALID,55,VALID,0.73117,
2003-06-10, 02:01:00,VALID,916.785,VALID,0,VALID,99.325,VALID,-0.0679233,VALID,19.9051,VALID,76,VALID,0.656461,
2003-06-10, 02:02:00,VALID,916.797,VALID,0,VALID,99.3288,VALID,-0.0849042,VALID,19.882,VALID,81,VALID,0.71183,
2003-06-10, 02:03:00,VALID,916.786,VALID,0,VALID,99.3212,VALID,-0.101885,VALID,19.8728,VALID,96,VALID,0.707732,
2003-06-10, 02:04:00,VALID,916.793,VALID,0,VALID,99.3123,VALID,-0.101885,VALID,19.8438,VALID,101,VALID,0.397804,
2003-06-10, 02:05:00,VALID,916.785,VALID,0,VALID,99.3225,VALID,-0.101885,VALID,19.8279,VALID,101,VALID,0.251736,
2003-06-10, 02:06:00,VALID,916.766,VALID,0,VALID,99.3212,VALID,-0.118866,VALID,19.8053,VALID,101,VALID,0.216602,
2003-06-10, 02:07:00,VALID,916.77,VALID,0,VALID,99.3403,VALID,-0.101885,VALID,19.7958,VALID,101,VALID,0.153952,
2003-06-10, 02:08:00,VALID,916.752,VALID,0,VALID,99.3441,VALID,-0.101885,VALID,19.7795,VALID,89,VALID,0.0987413,
2003-06-10, 02:09:00,VALID,916.738,VALID,0,VALID,99.3556,VALID,-0.0849042,VALID,19.7663,VALID,36,VALID,0.363281,
2003-06-10, 02:10:00,VALID,916.724,VALID,0,VALID,99.367,VALID,-0.101885,VALID,19.7598,VALID,36,VALID,0.175551,
2003-06-10, 02:11:00,VALID,916.698,VALID,0,VALID,99.3746,VALID,-0.0509425,VALID,19.7658,VALID,63,VALID,0.227679,
2003-06-10, 02:12:00,VALID,916.675,VALID,0,VALID,99.3759,VALID,0.0339617,VALID,19.7504,VALID,127,VALID,0.463141,
2003-06-10, 02:13:00,VALID,916.649,VALID,0,VALID,99.3606,VALID,0.0849042,VALID,19.7412,VALID,128,VALID,0.572846,
2003-06-10, 02:14:00,VALID,916.647,VALID,0,VALID,99.3721,VALID,0.0679233,VALID,19.7412,VALID,128,VALID,0.551339,
2003-06-10, 02:15:00,VALID,916.638,VALID,0,VALID,99.367,VALID,0.0339617,VALID,19.7124,VALID,149,VALID,0.764223,
2003-06-10, 02:16:00,VALID,916.648,VALID,0,VALID,99.3492,VALID,0.101885,VALID,19.6928,VALID,152,VALID,0.963471,
2003-06-10, 02:17:00,VALID,916.66,VALID,0,VALID,99.3365,VALID,0.0849042,VALID,19.6737,VALID,144,VALID,0.992839,
2003-06-10, 02:18:00,VALID,916.666,VALID,0,VALID,99.3568,VALID,0.0679233,VALID,19.6514,VALID,133,VALID,0.664063,
2003-06-10, 02:19:00,VALID,916.676,VALID,0,VALID,99.3721,VALID,0.0169808,VALID,19.6384,VALID,130,VALID,0.522289,
2003-06-10, 02:20:00,VALID,916.665,VALID,0,VALID,99.3886,VALID,0.0509425,VALID,19.6322,VALID,135,VALID,0.632161,
2003-06-10, 02:21:00,VALID,916.656,VALID,0,VALID,99.4026,VALID,0.0509425,VALID,19.625,VALID,126,VALID,0.597266,
2003-06-10, 02:22:00,VALID,916.66,VALID,0,VALID,99.4255,VALID,0.0679233,VALID,19.6253,VALID,129,VALID,0.49977,
2003-06-10, 02:23:00,VALID,916.668,VALID,0,VALID,99.4331,VALID,0.0509425,VALID,19.6119,VALID,105,VALID,0.848884,
2003-06-10, 02:24:00,VALID,916.661,VALID,0,VALID,99.4357,VALID,0.0849042,VALID,19.6054,VALID,103,VALID,0.909655,
2003-06-10, 02:25:00,VALID,916.658,VALID,0,VALID,99.4484,VALID,0.101885,VALID,19.6025,VALID,97,VALID,0.915118,
2003-06-10, 02:26:00,VALID,916.666,VALID,0,VALID,99.4585,VALID,0.0679233,VALID,19.6069,VALID,109,VALID,1.1471,
2003-06-10, 02:27:00,VALID,916.68,VALID,0,VALID,99.4662,VALID,0,VALID,19.5945,VALID,103,VALID,1.14984,
2003-06-10, 02:28:00,VALID,916.671,VALID,0,VALID,99.4764,VALID,-0.0339617,VALID,19.5977,VALID,98,VALID,1.04899,
2003-06-10, 02:29:00,VALID,916.672,VALID,0,VALID,99.5107,VALID,-0.0169808,VALID,19.5975,VALID,92,VALID,0.859375,
2003-06-10, 02:30:00,VALID,916.655,VALID,0,VALID,99.5234,VALID,0,VALID,19.6072,VALID,78,VALID,0.694141,
2003-06-10, 02:31:00,VALID,916.65,VALID,0,VALID,99.5183,VALID,-0.0169808,VALID,19.601,VALID,84,VALID,1.11558,
2003-06-10, 02:32:00,VALID,916.621,VALID,0,VALID,99.512,VALID,-0.0509425,VALID,19.5883,VALID,76,VALID,1.09961,
2003-06-10, 02:33:00,VALID,916.588,VALID,0,VALID,99.5132,VALID,0,VALID,19.565,VALID,82,VALID,1.31719,
2003-06-10, 02:34:00,VALID,916.579,VALID,0,VALID,99.517,VALID,-0.0169808,VALID,19.5555,VALID,80,VALID,1.04228,
2003-06-10, 02:35:00,VALID,916.572,VALID,0,VALID,99.531,VALID,0.0169808,VALID,19.5424,VALID,77,VALID,0.874107,
2003-06-10, 02:36:00,VALID,916.581,VALID,0,VALID,99.5399,VALID,0,VALID,19.5458,VALID,71,VALID,0.703526,
2003-06-10, 02:37:00,VALID,916.582,VALID,0,VALID,99.559,VALID,0,VALID,19.5389,VALID,97,VALID,0.899704,
2003-06-10, 02:38:00,VALID,916.586,VALID,0,VALID,99.5717,VALID,0,VALID,19.5493,VALID,88,VALID,0.833036,
2003-06-10, 02:39:00,VALID,916.592,VALID,0,VALID,99.5844,VALID,0,VALID,19.5327,VALID,96,VALID,0.628405,
2003-06-10, 02:40:00,VALID,916.581,VALID,0,VALID,99.5883,VALID,-0.0339617,VALID,19.5426,VALID,118,VALID,0.465372,
2003-06-10, 02:41:00,VALID,916.562,VALID,0,VALID,99.615,VALID,0,VALID,19.5496,VALID,113,VALID,0.46658,
2003-06-10, 02:42:00,VALID,916.554,VALID,0,VALID,99.6213,VALID,-0.0169808,VALID,19.5525,VALID,126,VALID,0.559375,
2003-06-10, 02:43:00,VALID,916.54,VALID,0,VALID,99.6251,VALID,-0.0339617,VALID,19.556,VALID,141,VALID,0.641544,
2003-06-10, 02:44:00,VALID,916.512,VALID,0,VALID,99.6302,VALID,-0.0339617,VALID,19.559,VALID,135,VALID,0.586589,
2003-06-10, 02:45:00,VALID,916.508,VALID,0,VALID,99.6366,VALID,0,VALID,19.5659,VALID,128,VALID,0.533594,
2003-06-10, 02:46:00,VALID,916.474,VALID,0,VALID,99.634,VALID,-0.0169808,VALID,19.553,VALID,136,VALID,0.893153,
2003-06-10, 02:47:00,VALID,916.453,VALID,0,VALID,99.6366,VALID,0,VALID,19.5401,VALID,118,VALID,0.605357,
2003-06-10, 02:48:00,VALID,916.44,VALID,0,VALID,99.6429,VALID,-0.0169808,VALID,19.5235,VALID,125,VALID,0.66887,
2003-06-10, 02:49:00,VALID,916.433,VALID,0,VALID,99.6366,VALID,-0.0169808,VALID,19.527,VALID,139,VALID,0.574958,
2003-06-10, 02:50:00,VALID,916.446,VALID,0,VALID,99.6518,VALID,-0.0169808,VALID,19.5071,VALID,142,VALID,0.547545,
2003-06-10, 02:51:00,VALID,916.436,VALID,0,VALID,99.6506,VALID,0,VALID,19.5141,VALID,154,VALID,0.959135,
2003-06-10, 02:52:00,VALID,916.442,VALID,0,VALID,99.6607,VALID,-0.0169808,VALID,19.5004,VALID,153,VALID,0.618877,
2003-06-10, 02:53:00,VALID,916.426,VALID,0,VALID,99.6684,VALID,0,VALID,19.5173,VALID,171,VALID,0.80816,
2003-06-10, 02:54:00,VALID,916.42,VALID,0,VALID,99.676,VALID,-0.0509425,VALID,19.5242,VALID,173,VALID,0.808398,
2003-06-10, 02:55:00,VALID,916.407,VALID,0,VALID,99.6836,VALID,-0.0169808,VALID,19.5367,VALID,171,VALID,0.861443,
2003-06-10, 02:56:00,VALID,916.395,VALID,0,VALID,99.6925,VALID,-0.0339617,VALID,19.5141,VALID,176,VALID,0.642144,
2003-06-10, 02:57:00,VALID,916.395,VALID,0,VALID,99.6938,VALID,-0.0509425,VALID,19.5247,VALID,171,VALID,0.508984,
2003-06-10, 02:58:00,VALID,916.395,VALID,0,VALID,99.7027,VALID,-0.0679233,VALID,19.5307,VALID,155,VALID,0.638787,
2003-06-10, 02:59:00,VALID,916.397,VALID,0,VALID,99.7091,VALID,-0.0509425,VALID,19.5471,VALID,151,VALID,0.384152,
2003-06-10, 03:00:00,VALID,916.397,VALID,0,VALID,99.7205,VALID,-0.0169808,VALID,19.5635,VALID,147,VALID,0.279848,
2003-06-10, 03:01:00,VALID,916.4,VALID,0,VALID,99.7116,VALID,-0.0169808,VALID,19.5496,VALID,91,VALID,0.425676,
2003-06-10, 03:02:00,VALID,916.391,VALID,0,VALID,99.7065,VALID,-0.0509425,VALID,19.5501,VALID,83,VALID,0.650223,
2003-06-10, 03:03:00,VALID,916.396,VALID,0,VALID,99.704,VALID,-0.0339617,VALID,19.5337,VALID,76,VALID,0.721955,
2003-06-10, 03:04:00,VALID,916.399,VALID,0,VALID,99.7002,VALID,-0.0169808,VALID,19.5242,VALID,97,VALID,0.946157,
2003-06-10, 03:05:00,VALID,916.403,VALID,0,VALID,99.7154,VALID,-0.0339617,VALID,19.5143,VALID,106,VALID,0.740668,
2003-06-10, 03:06:00,VALID,916.4,VALID,0,VALID,99.7294,VALID,-0.0339617,VALID,19.521,VALID,94,VALID,0.748828,
2003-06-10, 03:07:00,VALID,916.397,VALID,0,VALID,99.7218,VALID,-0.0679233,VALID,19.528,VALID,92,VALID,0.697381,
2003-06-10, 03:08:00,VALID,916.407,VALID,0,VALID,99.7218,VALID,-0.0169808,VALID,19.5183,VALID,103,VALID,0.742405,
2003-06-10, 03:09:00,VALID,916.411,VALID,0,VALID,99.7116,VALID,-0.0679233,VALID,19.4984,VALID,103,VALID,0.691016,
2003-06-10, 03:10:00,VALID,916.406,VALID,0,VALID,99.7116,VALID,-0.0509425,VALID,19.4957,VALID,90,VALID,0.538143,
2003-06-10, 03:11:00,VALID,916.408,VALID,0,VALID,99.7129,VALID,-0.0679233,VALID,19.4858,VALID,86,VALID,0.522545,
2003-06-10, 03:12:00,VALID,916.416,VALID,0,VALID,99.7065,VALID,-0.0339617,VALID,19.4699,VALID,87,VALID,0.573918,
2003-06-10, 03:13:00,VALID,916.428,VALID,0,VALID,99.7078,VALID,-0.0169808,VALID,19.4537,VALID,94,VALID,0.714949,
2003-06-10, 03:14:00,VALID,916.427,VALID,0,VALID,99.718,VALID,-0.0849042,VALID,19.4701,VALID,113,VALID,0.695982,
2003-06-10, 03:15:00,VALID,916.442,VALID,0,VALID,99.723,VALID,-0.0679233,VALID,19.4637,VALID,119,VALID,0.224359,
2003-06-10, 03:16:00,VALID,916.456,VALID,0,VALID,99.7205,VALID,-0.0679233,VALID,19.4473,VALID,120,VALID,0.384291,
2003-06-10, 03:17:00,VALID,916.477,VALID,0,VALID,99.7281,VALID,-0.0509425,VALID,19.444,VALID,143,VALID,0.567708,
2003-06-10, 03:18:00,VALID,916.492,VALID,0,VALID,99.7319,VALID,-0.0679233,VALID,19.4473,VALID,146,VALID,0.483203,
2003-06-10, 03:19:00,VALID,916.52,VALID,0,VALID,99.7358,VALID,-0.0679233,VALID,19.4475,VALID,145,VALID,0.285156,
2003-06-10, 03:20:00,VALID,916.523,VALID,0,VALID,99.7281,VALID,-0.0679233,VALID,19.4306,VALID,149,VALID,0.519314,
2003-06-10, 03:21:00,VALID,916.532,VALID,0,VALID,99.7167,VALID,-0.0849042,VALID,19.4252,VALID,145,VALID,0.679102,
2003-06-10, 03:22:00,VALID,916.532,VALID,0,VALID,99.7129,VALID,-0.0679233,VALID,19.3991,VALID,144,VALID,1.18773,
2003-06-10, 03:23:00,VALID,916.529,VALID,0,VALID,99.7154,VALID,-0.0849042,VALID,19.3825,VALID,143,VALID,0.721429,
2003-06-10, 03:24:00,VALID,916.519,VALID,0,VALID,99.7141,VALID,-0.0849042,VALID,19.3802,VALID,123,VALID,0.501402,
2003-06-10, 03:25:00,VALID,916.511,VALID,0,VALID,99.7154,VALID,-0.0849042,VALID,19.3604,VALID,116,VALID,0.415541,
2003-06-10, 03:26:00,VALID,916.508,VALID,0,VALID,99.7103,VALID,-0.0339617,VALID,19.3542,VALID,129,VALID,0.775223,
2003-06-10, 03:27:00,VALID,916.501,VALID,0,VALID,99.7103,VALID,0,VALID,19.3301,VALID,120,VALID,1.03045,
2003-06-10, 03:28:00,VALID,916.497,VALID,0,VALID,99.7052,VALID,0.0339617,VALID,19.3179,VALID,113,VALID,0.763725,
2003-06-10, 03:29:00,VALID,916.482,VALID,0,VALID,99.7027,VALID,0.0339617,VALID,19.2946,VALID,115,VALID,1.01085,
2003-06-10, 03:30:00,VALID,916.484,VALID,0,VALID,99.7065,VALID,0.0339617,VALID,19.2847,VALID,119,VALID,0.733594,
2003-06-10, 03:31:00,VALID,916.478,VALID,0,VALID,99.7345,VALID,0.0169808,VALID,19.2879,VALID,143,VALID,1.32008,
2003-06-10, 03:32:00,VALID,916.471,VALID,0,VALID,99.737,VALID,0.0169808,VALID,19.3172,VALID,109,VALID,1.14605,
2003-06-10, 03:33:00,VALID,916.459,VALID,0,VALID,99.7587,VALID,0.0339617,VALID,19.3204,VALID,114,VALID,0.817383,
2003-06-10, 03:34:01,VALID,916.447,VALID,0,VALID,99.7459,VALID,0.0169808,VALID,19.3304,VALID,93,VALID,0.632813,
2003-06-10, 03:35:00,VALID,916.434,VALID,0,VALID,99.7523,VALID,0.0169808,VALID,19.3003,VALID,90,VALID,1.08929,
2003-06-10, 03:36:01,VALID,916.393,VALID,0,VALID,99.7523,VALID,0.0679233,VALID,19.3075,VALID,115,VALID,0.736779,